This demonstration page uses our WeatherBlox Daily Observations layout. Learn more.

Left ArrowRight Arrow

Hourly Observations for August 27, 2019

Temp ( °F °C ) Dew Point ( °F °C ) Humidity (%) Winds ( mph kmh ) Pressure ( in mb ) Visibility ( mi km ) Precip ( " mm )
12:15 am 00:15 Clear 66 19 63 17 88 88 Calm 30.13 1020 10 16.0934 0 0
12:36 am 00:36 Clear 66 19 63 17 88 88 Calm 30.13 1020 10 16.0934 0 0
12:55 am 00:55 Clear 64 18 63 17 94 94 Calm 30.13 1020 10 16.0934 0 0
1:15 am 01:15 Clear 64 18 63 17 94 94 Calm 30.12 1020 10 16.0934 0 0
1:35 am 01:35 Clear 64 18 63 17 94 94 Calm 30.12 1020 10 16.0934 0 0
1:55 am 01:55 Partly Cloudy 64 18 63 17 94 94 Calm 30.12 1020 10 16.0934 0 0
2:15 am 02:15 Partly Cloudy 64 18 63 17 94 94 Calm 30.11 1020 10 16.0934 0 0
2:35 am 02:35 Clear 64 18 63 17 94 94 Calm 30.1 1019 10 16.0934 0 0
2:55 am 02:55 Clear 64 18 63 17 94 94 Calm 30.1 1019 10 16.0934 0 0
3:15 am 03:15 Clear 63 17 63 17 100 100 Calm 30.1 1019 10 16.0934 0 0
3:35 am 03:35 Clear 63 17 63 17 100 100 Calm 30.09 1019 10 16.0934 0 0
3:55 am 03:55 Clear 63 17 63 17 100 100 Calm 30.09 1019 10 16.0934 0 0
4:15 am 04:15 Clear 63 17 63 17 100 100 Calm 30.08 1018 10 16.0934 0 0
4:35 am 04:35 Clear 61 16 61 16 100 100 Calm 30.08 1019 10 16.0934 0 0
4:55 am 04:55 Clear 61 16 61 16 100 100 Calm 30.07 1018 10 16.0934 0 0
5:15 am 05:15 Clear 61 16 61 16 100 100 Calm 30.08 1019 10 16.0934 0 0
5:35 am 05:35 Clear 61 16 61 16 100 100 Calm 30.07 1018 10 16.0934 0 0
5:55 am 05:55 Clear 61 16 61 16 100 100 Calm 30.08 1019 10 16.0934 0 0
6:15 am 06:15 Clear 61 16 61 16 100 100 Calm 30.08 1019 10 16.0934 0 0
6:35 am 06:35 Partly Cloudy 61 16 61 16 100 100 Calm 30.09 1019 10 16.0934 0 0
6:55 am 06:55 Mostly Cloudy 63 17 63 17 100 100 Calm 30.09 1019 10 16.0934 0 0
7:15 am 07:15 Cloudy 63 17 63 17 100 100 Calm 30.09 1019 10 16.0934 0 0
7:35 am 07:35 Cloudy 63 17 63 17 100 100 Calm 30.09 1019 10 16.0934 0 0
7:55 am 07:55 Cloudy 63 17 63 17 100 100 Calm 30.09 1019 10 16.0934 0 0
8:15 am 08:15 Cloudy 63 17 63 17 100 100 Calm 30.1 1019 7 11.26538 0 0
8:35 am 08:35 Cloudy 63 17 63 17 100 100 Calm 30.1 1019 10 16.0934 0 0
8:55 am 08:55 Cloudy 63 17 63 17 100 100 Calm 30.09 1019 10 16.0934 0 0
9:15 am 09:15 Cloudy 63 17 63 17 100 100 Calm 30.1 1019 10 16.0934 0 0
9:35 am 09:35 Cloudy 64 18 63 17 94 94 Calm 30.09 1019 10 16.0934 0 0
9:55 am 09:55 Cloudy 64 18 63 17 94 94 Calm 30.08 1019 10 16.0934 0 0
10:15 am 10:15 Cloudy 68 20 63 17 83 83 ESE 3 6 30.07 1018 10 16.0934 0 0
10:35 am 10:35 Cloudy 68 20 64 18 88 88 SE 6 9 30.07 1018 10 16.0934 0 0
10:55 am 10:55 Cloudy 68 20 64 18 88 88 SSE 6 9 30.07 1018 10 16.0934 0 0
11:15 am 11:15 Cloudy 70 21 64 18 83 83 S 6 9 30.07 1018 10 16.0934 0 0
11:35 am 11:35 Cloudy 70 21 64 18 83 83 S 7 11 30.07 1018 10 16.0934 0 0
11:55 am 11:55 Cloudy 70 21 64 18 83 83 S 6 9 30.07 1018 10 16.0934 0 0
12:15 pm 12:15 Cloudy 72 22 64 18 78 78 S 7 11 30.06 1018 10 16.0934 0 0
12:35 pm 12:35 Cloudy 72 22 64 18 78 78 S 8 13 30.05 1018 10 16.0934 0 0
12:55 pm 12:55 Cloudy 73 23 64 18 74 74 SSW 9 15 30.04 1017 10 16.0934 0 0
1:15 pm 13:15 Cloudy 73 23 66 19 78 78 S 8 13 30.04 1017 10 16.0934 0 0
1:35 pm 13:35 Cloudy 73 23 64 18 74 74 SW 5 7 30.03 1017 10 16.0934 0 0
1:55 pm 13:55 Cloudy 73 23 66 19 78 78 S 7 11 30.02 1016 10 16.0934 0 0
2:15 pm 14:15 Cloudy 77 25 66 19 69 69 S 6 9 30.01 1016 10 16.0934 0 0
2:35 pm 14:35 Cloudy 77 25 64 18 65 65 SSE 3 6 30 1016 10 16.0934 0 0
2:55 pm 14:55 Cloudy 77 25 66 19 69 69 S 9 15 30 1016 10 16.0934 0 0
3:15 pm 15:15 Cloudy 79 26 66 19 65 65 Calm 29.99 1016 10 16.0934 0 0
3:35 pm 15:35 Cloudy 79 26 68 20 70 70 SSW 6 9 29.98 1015 10 16.0934 0 0
3:55 pm 15:55 Cloudy 79 26 66 19 65 65 S 7 11 29.98 1015 10 16.0934 0 0
4:15 pm 16:15 Cloudy 79 26 66 19 65 65 SSE 6 9 29.98 1015 10 16.0934 0 0
4:35 pm 16:35 Mostly Cloudy 79 26 68 20 70 70 S 6 9 29.96 1015 10 16.0934 0 0
4:55 pm 16:55 Mostly Cloudy 79 26 68 20 70 70 SW 7 11 29.96 1015 10 16.0934 0 0
5:15 pm 17:15 Mostly Cloudy 81 27 68 20 66 66 S 7 11 29.96 1015 10 16.0934 0 0
5:35 pm 17:35 Cloudy 79 26 68 20 70 70 SW 3 6 29.96 1015 10 16.0934 0 0
5:55 pm 17:55 Cloudy 79 26 68 20 70 70 S 6 9 29.96 1015 10 16.0934 0 0
6:15 pm 18:15 Partly Cloudy 79 26 68 20 70 70 S 5 7 29.95 1014 10 16.0934 0 0
6:35 pm 18:35 Partly Cloudy 79 26 68 20 70 70 SSW 7 11 29.95 1014 10 16.0934 0 0
6:55 pm 18:55 Partly Cloudy 77 25 68 20 74 74 SSW 3 6 29.95 1014 10 16.0934 0 0
7:15 pm 19:15 Mostly Cloudy 77 25 68 20 74 74 SSW 3 6 29.95 1014 10 16.0934 0 0
7:55 pm 19:55 Cloudy 77 25 68 20 74 74 Calm 29.96 1015 10 16.0934 0 0
8:15 pm 20:15 Cloudy 75 24 68 20 78 78 Calm 29.97 1015 10 16.0934 0 0
8:35 pm 20:35 Cloudy 75 24 68 20 78 78 Calm 29.97 1015 10 16.0934 0 0
8:55 pm 20:55 Cloudy 75 24 68 20 78 78 SSW 5 7 29.98 1015 10 16.0934 0 0
9:15 pm 21:15 Cloudy 75 24 68 20 78 78 Calm 29.99 1015 10 16.0934 0 0
9:35 pm 21:35 Cloudy 75 24 68 20 78 78 S 6 9 29.99 1015 10 16.0934 0 0
9:55 pm 21:55 Cloudy 73 23 68 20 83 83 S 6 9 29.99 1015 10 16.0934 0 0
10:15 pm 22:15 Cloudy 75 24 68 20 78 78 S 5 7 29.99 1015 10 16.0934 0 0
10:35 pm 22:35 Cloudy 73 23 68 20 83 83 S 3 6 29.99 1015 10 16.0934 0 0
10:55 pm 22:55 Cloudy 75 24 68 20 78 78 SE 6 9 29.99 1015 10 16.0934 0 0
11:15 pm 23:15 Cloudy 75 24 68 20 78 78 SSE 7 11 29.99 1015 10 16.0934 0 0
11:35 pm 23:35 Cloudy 73 23 68 20 83 83 SSE 7 11 29.98 1015 10 16.0934 0 0
11:55 pm 23:55 Cloudy 73 23 68 20 83 83 SSE 6 9 29.97 1015 10 16.0934 0 0

Powered by AerisWeather